GW0410 Weather Reports


time (UTC)temp
C
wind
direction
speed
KPH
gust
KPH
rain 1hr
cm
rain 24hr
cm
rain mn
cm
humidity
%
barometer
mb
20260504081121 23 168 3.2 8.0 0.00 0.00 0.00 40 1016.1
20260504060107 20 135 0.0 1.6 0.00 0.00 0.00 45 1016.2
20260504050143 16 176 0.0 4.8 0.00 0.00 0.00 52 1016.1
20260504045047 15 164 1.6 4.8 0.00 0.00 0.00 54 1016.0
20260504044037 13 174 1.6 6.4 0.00 0.00 0.00 57 1016.0
20260504043026 13 303 1.6 4.8 0.00 0.00 0.00 58 1016.0
20260504042023 13 173 1.6 6.4 0.00 0.00 0.00 58 1016.0
20260504041107 12 128 3.2 9.7 0.00 0.00 0.00 60 1015.9
20260504040025 12 154 1.6 8.0 0.00 0.00 0.00 61 1016.2
20260504035024 12 83 0.0 0.0 0.00 0.00 0.00 61 1016.2
20260504034021 11 149 0.0 3.2 0.00 0.00 0.00 63 1016.0
20260504033114 10 141 1.6 6.4 0.00 0.00 0.00 66 1015.9
20260504032027 10 0.0 0.0 0.00 0.00 0.00 67 1015.9
20260504031020 10 0.0 0.0 0.00 0.00 0.00 67 1016.3
20260504030030 10 358 0.0 0.0 0.00 0.00 0.00 66 1016.3
20260504025052 10 0.0 0.0 0.00 0.00 0.00 66 1016.3
20260504024025 10 0.0 0.0 0.00 0.00 0.00 67 1016.3
20260504023033 10 0.0 0.0 0.00 0.00 0.00 67 1016.3
20260504022019 10 0.0 0.0 0.00 0.00 0.00 67 1016.3
20260504021022 9 0.0 0.0 0.00 0.00 0.00 67 1016.2
20260504020028 8 0.0 0.0 0.00 0.00 0.00 68 1015.8
20260504015027 8 0.0 0.0 0.00 0.00 0.00 68 1015.8
20260504014046 8 0.0 0.0 0.00 0.00 0.00 67 1016.1
20260504013028 8 0.0 0.0 0.00 0.00 0.00 66 1016.1
20260504012100 8 0.0 0.0 0.00 0.00 0.00 65 1016.1
20260504011030 8 0.0 0.0 0.00 0.00 0.00 64 1015.8
20260504010024 10 0.0 0.0 0.00 0.00 0.00 62 1016.2
20260504005019 11 0.0 0.0 0.00 0.00 0.00 59 1016.2
20260504004056 11 0.0 0.0 0.00 0.00 0.00 57 1015.9
20260504003026 12 21 0.0 0.0 0.00 0.00 0.00 55 1016.3
20260504002026 12 107 0.0 0.0 0.00 0.00 0.00 53 1016.3
20260504001057 12 0.0 0.0 0.00 0.00 0.00 52 1015.6
20260503235040 12 125 0.0 0.0 0.00 0.00 0.00 52 1016.3
20260503234033 12 0.0 0.0 0.00 0.00 0.00 51 1015.9
20260503233057 12 138 0.0 1.6 0.00 0.00 0.00 51 1016.2
20260503232032 12 0.0 0.0 0.00 0.00 0.00 51 1016.3
20260503231133 13 181 0.0 0.0 0.00 0.00 0.00 50 1016.6
20260503230025 13 0.0 0.0 0.00 0.00 0.00 49 1016.3
20260503225027 13 0.0 0.0 0.00 0.00 0.00 49 1016.3
20260503224021 13 162 0.0 0.0 0.00 0.00 0.00 48 1016.3
20260503223024 14 99 0.0 0.0 0.00 0.00 0.00 47 1016.4
20260503222026 14 92 0.0 3.2 0.00 0.00 0.00 47 1016.4
20260503221039 14 213 0.0 0.0 0.00 0.00 0.00 47 1016.3
20260503220537 15 196 0.0 3.2 0.00 0.00 0.00 46 1016.6
20260503215023 15 172 0.0 3.2 0.00 0.00 0.00 46 1016.6
20260503214019 15 164 1.6 4.8 0.00 0.00 0.00 46 1016.4
20260503213028 15 154 1.6 6.4 0.00 0.00 0.00 46 1016.4
20260503212018 15 101 0.0 3.2 0.00 0.00 0.00 46 1016.4
20260503211028 15 115 0.0 1.6 0.00 0.00 0.00 47 1016.7
20260503210022 13 197 1.6 6.4 0.00 0.00 0.00 48 1016.6
20260503205020 12 82 0.0 3.2 0.00 0.00 0.00 52 1016.6
20260503204132 12 0.0 0.0 0.00 0.00 0.00 54 1016.6
20260503203020 12 0.0 0.0 0.00 0.00 0.00 55 1016.9
20260503202020 12 0.0 0.0 0.00 0.00 0.00 54 1016.9
20260503201021 13 0.0 0.0 0.00 0.00 0.00 55 1016.5
20260503200026 13 0.0 0.0 0.00 0.00 0.00 54 1016.5
20260503195103 13 0.0 0.0 0.00 0.00 0.00 53 1016.6
20260503194020 13 0.0 0.0 0.00 0.00 0.00 53 1016.9
20260503193020 14 0.0 0.0 0.00 0.00 0.00 52 1016.6
20260503192051 15 0.0 0.0 0.00 0.00 0.00 52 1016.7
20260503191034 15 0.0 0.0 0.00 0.00 0.00 51 1016.8
20260503190034 15 0.0 0.0 0.00 0.00 0.00 51 1016.1
20260503185039 16 0.0 0.0 0.00 0.00 0.00 50 1016.2
20260503184030 16 186 0.0 0.0 0.00 0.00 0.00 50 1016.5
20260503183029 16 0.0 0.0 0.00 0.00 0.00 49 1016.5
20260503182029 17 0.0 0.0 0.00 0.00 0.00 48 1016.5
20260503181033 18 0.0 0.0 0.00 0.00 0.00 46 1016.1
20260503180031 18 173 0.0 1.6 0.00 0.00 0.00 45 1016.1
20260503175019 19 179 0.0 1.6 0.00 0.00 0.00 44 1016.1
20260503174104 20 222 1.6 4.8 0.00 0.00 0.00 42 1016.0
20260503173034 20 159 1.6 6.4 0.00 0.00 0.00 41 1016.0
20260503172026 20 142 1.6 6.4 0.00 0.00 0.00 41 1016.0
20260503171047 20 200 1.6 8.0 0.00 0.00 0.00 40 1015.8
20260503131024 25 195 3.2 11.3 0.00 0.00 0.00 34 1017.9